[[{"header":{"parameterUnit":"m.s-1","parameterCategory":1,"la1":30.2991,"la2":30.254,"lo1":-89.0895,"lo2":-89.0444,"dy":0.0017,"dx":0.0017,"nx":28,"ny":28,"refTime":"2024-06-02T09:00:00:Z","depth":0,"parameterNumber":2,"parameterNumberName":"U-component_of_WINDS"},"data":[0,0,0,0,0,0,0,0,0,0,0,0,0,0,0,0,0,0,0,0,0,0,0,0,0,0,0,0,0,0,0,0,0,0,0,0,0,0,0,0,0,0,0,0,0,0,0,0,0,0,0,0,0,0,0,0,0,0,-2.1202,-2.1202,0,-2.1125,-2.1124,-2.1123,-2.1053,-2.1052,-2.1051,-2.105,-2.0969,-2.0968,-2.0967,0,0,0,0,0,0,0,0,0,0,0,0,0,-2.1291,-2.129,-2.1202,-2.1201,-2.1201,-2.1125,-2.1124,-2.1123,-2.1053,-2.1052,-2.1051,-2.105,-2.097,-2.0968,-2.0966,0,0,0,0,0,0,0,0,0,0,0,0,0,-2.1237,-2.1289,-2.1203,-2.1157,-2.1152,-2.1125,-2.1124,-2.1122,-2.1053,-2.1052,-2.1051,-2.1049,-2.097,-2.0968,-2.0966,-2.0978,0,0,-2.096,-2.0959,0,0,0,0,0,0,0,0,-2.124,-2.1234,-2.1164,-2.116,-2.1154,-2.1097,-2.1125,-2.1074,-2.1053,-2.1091,-2.105,-2.1049,-2.1013,-2.1007,-2.0995,-2.0975,-2.0971,-2.096,-2.0958,-2.0958,-2.0957,0,0,0,0,0,0,0,-2.1244,-2.1237,-2.1172,-2.1163,-2.1157,-2.114,-2.1131,-2.1115,-2.106,-2.1087,-2.1082,-2.1074,-2.101,-2.0997,-2.0993,-2.097,-2.096,-2.0958,-2.0957,-2.0956,-2.0957,-2.0958,0,0,0,0,0,0,-2.1255,-2.124,-2.1174,-2.1169,-2.1195,-2.114,-2.1129,-2.1117,-2.106,-2.105,-2.1075,-2.1071,-2.1002,-2.0995,-2.099,-2.1,-2.0958,-2.0956,-2.0954,-2.0955,-2.0957,-2.0958,0,0,0,0,0,0,-2.1257,-2.1249,-2.1177,-2.1203,-2.1193,-2.1139,-2.1126,-2.1116,-2.1103,-2.105,-2.104,-2.1072,-2.1,-2.0993,-2.0982,-2.0996,-2.0955,-2.0953,-2.0954,-2.0956,-2.0958,-2.1021,0,0,0,0,0,0,-2.126,-2.1251,-2.1254,-2.1204,-2.1192,-2.1171,-2.1127,-2.1115,-2.11,-2.1094,-2.1045,-2.1036,-2.0999,-2.0986,-2.098,-2.0993,-2.0951,-2.0952,-2.0955,-2.0957,-2.1017,-2.1025,-2.1031,0,0,0,0,0,-2.1263,-2.1275,-2.1255,-2.1247,-2.1195,-2.1172,-2.1165,-2.1122,-2.1102,-2.1105,-2.1071,-2.1037,-2.0997,-2.0985,-2.0978,-2.099,-2.0951,-2.0954,-2.0957,-2.1014,-2.1023,-2.1031,0,0,0,0,0,0,-2.1327,-2.1267,-2.1244,-2.124,-2.1212,-2.116,-2.1162,-2.1133,-2.1109,-2.1104,-2.1053,-2.1042,-2.1037,-2.1013,-2.1002,-2.1,-2.0969,-2.0971,-2.1015,-2.1024,-2.103,-2.1035,-2.095,0,0,0,0,0,-2.1341,-2.1327,-2.1275,-2.1277,-2.1264,-2.1216,-2.1204,-2.1174,-2.1142,-2.113,-2.1095,-2.1065,-2.1046,-2.1034,-2.1013,-2.1015,-2.1003,-2.102,-2.1027,-2.1033,-2.1034,-2.1034,-2.1041,-2.0968,-2.0968,-2.0968,0,0,-2.1369,-2.1334,-2.1328,-2.1289,-2.1263,-2.125,-2.1206,-2.1194,-2.1183,-2.1128,-2.1115,-2.109,-2.1053,-2.1049,-2.1046,-2.1029,-2.1053,-2.1037,-2.1042,-2.1039,-2.1038,-2.1045,-2.1051,-2.097,-2.0969,-2.0969,0,0,-2.1412,-2.1385,-2.1383,-2.1359,-2.1322,-2.129,-2.1291,-2.1244,-2.1225,-2.1212,-2.117,-2.1158,-2.1125,-2.1101,-2.1084,-2.1123,-2.1091,-2.1118,-2.1153,-2.1153,-2.1159,-2.1164,-2.1177,-2.1182,-2.112,-2.112,-2.112,0,-2.1451,-2.1429,-2.1386,-2.1376,-2.136,-2.1312,-2.1309,-2.1288,-2.1246,-2.1236,-2.1218,-2.1177,-2.1149,-2.1139,-2.1149,-2.1137,-2.1135,-2.1121,-2.1162,-2.1166,-2.117,-2.1182,-2.1187,-2.1123,-2.1123,-2.1122,-2.1122,0,-2.1479,-2.1465,-2.1468,-2.1429,-2.1414,-2.1408,-2.1364,-2.1354,-2.1327,-2.1298,-2.1286,-2.1252,-2.1223,-2.1219,-2.1192,-2.1206,-2.1197,-2.1171,-2.1139,-2.1181,-2.1191,-2.1195,-2.1128,-2.1127,-2.1126,-2.1125,0,0,-2.1557,-2.1497,-2.1498,-2.148,-2.1437,-2.1425,-2.1418,-2.1391,-2.1383,-2.1357,-2.1349,-2.1325,-2.1301,-2.1283,-2.1253,-2.1254,-2.1286,-2.1228,-2.1226,-2.1239,-2.1299,-2.1317,-2.1323,-2.1266,-2.1267,-2.1267,-2.1302,0,-2.1592,-2.1576,-2.1538,-2.1534,-2.152,-2.1476,-2.147,-2.1443,-2.1416,-2.1401,-2.1372,-2.1355,-2.1326,-2.1315,-2.1314,-2.1282,-2.1297,-2.128,-2.1258,-2.1257,-2.1266,-2.1328,-2.1346,-2.138,-2.1305,-2.1306,-2.1307,0,-2.163,-2.1607,-2.1601,-2.156,-2.1553,-2.1548,-2.1521,-2.1508,-2.1477,-2.1458,-2.1439,-2.1407,-2.1397,-2.137,-2.1357,-2.1346,-2.1335,-2.1319,-2.1319,-2.1313,-2.1283,-2.1323,-2.139,-2.1395,-2.1313,-2.1312,-2.1312,0,-2.1686,-2.1654,-2.1647,-2.1633,-2.1585,-2.1583,-2.1563,-2.1531,-2.1517,-2.1495,-2.1485,-2.1462,-2.1448,-2.1431,-2.1394,-2.1377,-2.1384,-2.1354,-2.1368,-2.1369,-2.1368,-2.1369,-2.1434,-2.1366,-2.1366,-2.1365,-2.1365,0,-2.1727,-2.1726,-2.1671,-2.1667,-2.1664,-2.1622,-2.162,-2.1596,-2.1568,-2.1559,-2.1519,-2.1511,-2.1463,-2.1449,-2.142,-2.1413,-2.1408,-2.1392,-2.1384,-2.1394,-2.1396,-2.1384,-2.138,-2.1367,-2.1366,-2.1366,-2.1366,0,-2.1788,-2.1752,-2.1741,-2.1697,-2.1686,-2.1686,-2.1649,-2.1643,-2.1616,-2.1604,-2.1599,-2.1556,-2.1538,-2.15,-2.1471,-2.1452,-2.1452,-2.1438,-2.1462,-2.1457,-2.1472,-2.1471,-2.1531,-2.1536,-2.1466,-2.1467,-2.1468,0,-2.1816,-2.1814,-2.1771,-2.1761,-2.1743,-2.1729,-2.1716,-2.1675,-2.1663,-2.1629,-2.1628,-2.1607,-2.1588,-2.1562,-2.1528,-2.1507,-2.1491,-2.1514,-2.1488,-2.1499,-2.149,-2.149,-2.149,-2.1519,-2.152,-2.1521,-2.1522,0,-2.1869,-2.1852,-2.1834,-2.1811,-2.1797,-2.1777,-2.1754,-2.175,-2.1704,-2.1693,-2.1674,-2.166,-2.1632,-2.1612,-2.1586,-2.1565,-2.1536,-2.1531,-2.1533,-2.1542,-2.1555,-2.1547,-2.1476,-2.1529,-2.1528,-2.1527,-2.1527,-2.1527,-2.1913,-2.1909,-2.1879,-2.1861,-2.184,-2.1821,-2.1814,-2.1787,-2.1771,-2.1745,-2.1722,-2.1706,-2.1678,-2.164,-2.1622,-2.1609,-2.1594,-2.1597,-2.1597,-2.1598,-2.1602,-2.156,-2.1604,-2.1604,-2.1603,-2.1603,-2.1603,0,-2.1963,-2.1942,-2.1926,-2.1897,-2.1883,-2.1859,-2.1834,-2.1824,-2.181,-2.1786,-2.1769,-2.1749,-2.173,-2.1696,-2.1675,-2.1671,-2.1657,-2.1666,-2.1665,-2.1661,-2.1617,-2.1617,-2.1678,-2.1678,-2.1678,-2.1678,-2.1678,-2.1678,-2.1987,-2.1979,-2.1959,-2.1942,-2.192,-2.1904,-2.1892,-2.1875,-2.1855,-2.1834,-2.1819,-2.1797,-2.177,-2.1746,-2.1728,-2.1719,-2.1712,-2.1726,-2.1712,-2.1671,-2.1664,-2.1657,-2.1657,-2.1725,-2.1725,-2.1756,-2.1757,-2.1757]},{"header":{"parameterUnit":"m.s-1","parameterCategory":1,"la1":30.2991,"la2":30.254,"lo1":-89.0895,"lo2":-89.0444,"dy":0.0017,"dx":0.0017,"nx":28,"ny":28,"refTime":"2024-06-02T09:00:00:Z","depth":0,"parameterNumber":3,"parameterNumberName":"V-component_of_WINDS"},"data":[0,0,0,0,0,0,0,0,0,0,0,0,0,0,0,0,0,0,0,0,0,0,0,0,0,0,0,0,0,0,0,0,0,0,0,0,0,0,0,0,0,0,0,0,0,0,0,0,0,0,0,0,0,0,0,0,0,0,3.8783,3.8783,0,3.8786,3.8786,3.8786,3.8802,3.8802,3.8802,3.8803,3.8804,3.8804,3.8803,0,0,0,0,0,0,0,0,0,0,0,0,0,3.8789,3.8789,3.8783,3.8783,3.8783,3.8786,3.8786,3.8786,3.8802,3.8802,3.8802,3.8803,3.8804,3.8804,3.8803,0,0,0,0,0,0,0,0,0,0,0,0,0,3.8788,3.8789,3.8783,3.8791,3.8792,3.8786,3.8786,3.8786,3.8801,3.8802,3.8803,3.8803,3.8804,3.8804,3.8803,3.8789,0,0,3.8802,3.8801,0,0,0,0,0,0,0,0,3.8788,3.8788,3.879,3.879,3.8791,3.8794,3.8789,3.8787,3.8801,3.8798,3.8803,3.8803,3.88,3.88,3.8799,3.8789,3.8789,3.8802,3.8801,3.8801,3.8801,0,0,0,0,0,0,0,3.8788,3.8788,3.8784,3.879,3.8791,3.8794,3.8795,3.8788,3.8795,3.8798,3.8799,3.8799,3.88,3.88,3.8799,3.8789,3.8802,3.8801,3.8801,3.8801,3.8768,3.8768,0,0,0,0,0,0,3.8788,3.8788,3.8784,3.8784,3.8791,3.8794,3.8794,3.8792,3.8796,3.8797,3.8799,3.88,3.88,3.88,3.8799,3.8784,3.8801,3.8801,3.88,3.8769,3.8768,3.8768,0,0,0,0,0,0,3.8788,3.8787,3.8784,3.8786,3.8786,3.8793,3.8791,3.8792,3.8791,3.8796,3.8798,3.8797,3.8801,3.88,3.8792,3.8784,3.88,3.88,3.877,3.8769,3.8768,3.8751,0,0,0,0,0,0,3.8788,3.8787,3.8782,3.8786,3.8786,3.8776,3.879,3.8792,3.8791,3.8792,3.8795,3.8796,3.8801,3.8792,3.8791,3.8783,3.88,3.877,3.8769,3.8768,3.8753,3.875,3.8748,0,0,0,0,0,3.8788,3.8776,3.8781,3.8781,3.878,3.8776,3.8776,3.8783,3.879,3.8785,3.8788,3.8795,3.8785,3.8791,3.879,3.8782,3.8771,3.8769,3.8768,3.8754,3.875,3.8748,0,0,0,0,0,0,3.877,3.8777,3.8783,3.8772,3.8773,3.8778,3.8772,3.8779,3.8777,3.8779,3.8787,3.8787,3.8778,3.8779,3.8786,3.8769,3.8779,3.8778,3.8768,3.8766,3.8763,3.8763,3.8799,0,0,0,0,0,3.8765,3.8761,3.8768,3.8758,3.8758,3.8765,3.8763,3.8769,3.877,3.877,3.8773,3.8773,3.877,3.8768,3.8765,3.8753,3.8754,3.8747,3.8745,3.8743,3.8741,3.8735,3.8733,3.8763,3.8763,3.8763,0,0,3.8753,3.8757,3.8754,3.8754,3.8756,3.8752,3.8765,3.876,3.8757,3.8769,3.8762,3.8764,3.8765,3.8755,3.8751,3.8756,3.8733,3.8741,3.8739,3.8739,3.8734,3.8731,3.8728,3.8762,3.8763,3.8763,0,0,3.8732,3.8734,3.8727,3.8728,3.8731,3.8736,3.8734,3.8738,3.8741,3.8734,3.8743,3.8739,3.8734,3.8734,3.8734,3.8714,3.8721,3.8713,3.87,3.8695,3.8692,3.869,3.8683,3.8681,3.8711,3.8711,3.8711,0,3.8718,3.8713,3.8722,3.8717,3.8716,3.8728,3.8721,3.8722,3.8723,3.8722,3.8728,3.8722,3.8724,3.8715,3.871,3.8709,3.8707,3.8712,3.8692,3.869,3.8688,3.8682,3.8679,3.871,3.8711,3.8711,3.8711,0,3.8695,3.8692,3.8685,3.8688,3.8687,3.868,3.8688,3.8686,3.8692,3.8696,3.8689,3.8692,3.869,3.8689,3.8694,3.868,3.8684,3.8691,3.8701,3.8684,3.8678,3.8676,3.8709,3.8709,3.871,3.871,0,0,3.8661,3.867,3.8667,3.8669,3.8673,3.867,3.8665,3.8664,3.8662,3.8663,3.8659,3.8654,3.8662,3.8661,3.8667,3.8662,3.8647,3.867,3.867,3.8665,3.8632,3.8627,3.8624,3.8651,3.8651,3.8651,3.8633,0,3.8641,3.8632,3.8641,3.863,3.8627,3.8639,3.8635,3.8637,3.8641,3.8639,3.8643,3.864,3.8649,3.8649,3.8645,3.8649,3.864,3.8651,3.8647,3.8647,3.8647,3.8621,3.8615,3.8598,3.863,3.863,3.863,0,3.8615,3.8616,3.8606,3.8612,3.8611,3.8607,3.8608,3.8606,3.8608,3.8612,3.8612,3.8619,3.8614,3.8625,3.8618,3.8625,3.8625,3.8626,3.8626,3.8626,3.8637,3.862,3.8593,3.859,3.8626,3.8626,3.8627,0,3.8592,3.859,3.8584,3.8585,3.8592,3.8589,3.8592,3.8595,3.8595,3.8595,3.8595,3.8595,3.8595,3.8594,3.8601,3.8608,3.8594,3.8605,3.8597,3.8596,3.8593,3.8593,3.8564,3.8592,3.8592,3.8592,3.8592,0,3.8568,3.8561,3.8574,3.857,3.8563,3.8573,3.8566,3.857,3.8573,3.857,3.858,3.8577,3.8587,3.8585,3.8591,3.8585,3.8584,3.8587,3.8588,3.8586,3.8586,3.8585,3.8587,3.8591,3.8592,3.8592,3.8592,0,3.854,3.8549,3.8543,3.8551,3.8552,3.8547,3.8553,3.855,3.8556,3.8552,3.8551,3.856,3.8558,3.8565,3.8564,3.8568,3.8559,3.8563,3.8559,3.856,3.8551,3.8552,3.8522,3.8519,3.8548,3.8548,3.8547,0,3.8524,3.852,3.8527,3.8527,3.8529,3.8528,3.8528,3.8538,3.8537,3.8541,3.8537,3.8537,3.8537,3.8534,3.8539,3.8539,3.8543,3.8532,3.8543,3.8541,3.8543,3.8543,3.8543,3.853,3.8529,3.8529,3.8529,0,3.8496,3.8501,3.8501,3.8502,3.8502,3.8504,3.8506,3.8505,3.8516,3.8515,3.8514,3.8514,3.8514,3.8513,3.8515,3.8517,3.8525,3.8526,3.8524,3.8521,3.8519,3.8521,3.8553,3.8526,3.8526,3.8527,3.8527,3.8527,3.8474,3.8471,3.8476,3.8476,3.8479,3.8481,3.8479,3.8485,3.8484,3.8486,3.8491,3.849,3.8493,3.8496,3.8498,3.8497,3.8501,3.8499,3.8498,3.8497,3.8496,3.852,3.8497,3.8497,3.8497,3.8497,3.8497,0,3.8446,3.8451,3.845,3.8454,3.8454,3.8462,3.8466,3.8465,3.8464,3.8467,3.8467,3.8467,3.8466,3.8473,3.8473,3.8471,3.8475,3.8471,3.8471,3.8472,3.8491,3.8493,3.8468,3.8468,3.8468,3.8468,3.8468,3.8468,3.8432,3.8427,3.8433,3.843,3.8434,3.8433,3.8434,3.8436,3.8439,3.8438,3.8439,3.8443,3.8448,3.8449,3.8449,3.8451,3.8451,3.8446,3.8449,3.8467,3.847,3.8473,3.8474,3.8446,3.8446,3.843,3.843,3.8429]}]]